Location: Bonaustraße
(48.4603°N, 11.9280°E)
Time: 05:58:56
(UTC+01:00)

X-37B - Pass Details

Date: 29 January 2021
Orbit: 383 x 391 km, 45.0° (Epoch: 27 February)

Event Time Altitude Azimuth Distance (km) Brightness Sun altitude
Rises 17:46:59 0° 268° (W) 2,270 6.2 -7.0°
Reaches altitude 10° 17:49:08 10° 260° (W) 1,416 5.1 -7.4°
Maximum altitude 17:52:07 37° 191° (SSW) 624 1.9 -7.8°
Drops below altitude 10° 17:55:05 10° 122° (ESE) 1,417 3.1 -8.3°
Enters shadow 17:56:10 - 117° (ESE) 1,841 3.6 -8.5°
